| time (UTC) | temp F | wind direction | speed knots | gust knots | rain 1hr in | rain 24hr in | rain mn in | humidity % | barometer mb |
| 20260509151944 | 59 | 247 | 4.3 | 10.4 | 0.00 | 0.00 | 0.00 | 74 | 1001.9 |
| 20260509150943 | 59 | 148 | 3.5 | 9.6 | 0.00 | 0.00 | 0.00 | 74 | 1002.0 |
| 20260509145941 | 59 | 153 | 3.5 | 7.8 | 0.00 | 0.00 | 0.00 | 78 | 1002.1 |
| 20260509144942 | 57 | 149 | 3.5 | 7.8 | 0.00 | 0.00 | 0.00 | 82 | 1002.4 |
| 20260509143943 | 55 | 166 | 1.7 | 6.1 | 0.00 | 0.00 | 0.00 | 85 | 1002.4 |
| 20260509142940 | 55 | 153 | 0.0 | 3.5 | 0.00 | 0.00 | 0.00 | 87 | 1002.7 |
| 20260509141940 | 54 | 245 | 0.0 | 1.7 | 0.00 | 0.00 | 0.00 | 88 | 1003.0 |
| 20260509140942 | 54 | 153 | 3.5 | 9.6 | 0.00 | 0.00 | 0.00 | 87 | 1003.2 |
| 20260509135943 | 53 | 175 | 4.3 | 10.4 | 0.00 | 0.00 | 0.00 | 87 | 1002.6 |
| 20260509134941 | 53 | 190 | 4.3 | 12.2 | 0.00 | 0.00 | 0.00 | 88 | 1002.8 |
| 20260509133945 | 53 | 223 | 4.3 | 9.6 | 0.00 | 0.00 | 0.00 | 88 | 1003.0 |
| 20260509132936 | 53 | 225 | 3.5 | 13.9 | 0.00 | 0.00 | 0.00 | 89 | 1003.3 |
| 20260509131937 | 53 | 211 | 3.5 | 12.2 | 0.00 | 0.00 | 0.00 | 89 | 1003.3 |
| 20260509130940 | 53 | 157 | 4.3 | 10.4 | 0.00 | 0.00 | 0.00 | 89 | 1003.4 |
| 20260509125935 | 53 | 226 | 4.3 | 10.4 | 0.00 | 0.00 | 0.00 | 89 | 1003.4 |
| 20260509124934 | 53 | 123 | 4.3 | 9.6 | 0.00 | 0.00 | 0.00 | 91 | 1003.3 |
| 20260509123934 | 53 | 139 | 4.3 | 9.6 | 0.00 | 0.00 | 0.00 | 92 | 1003.4 |
| 20260509122933 | 52 | 178 | 1.7 | 6.1 | 0.00 | 0.00 | 0.00 | 94 | 1003.5 |
| 20260509121933 | 52 | 192 | 1.7 | 6.1 | 0.00 | 0.00 | 0.00 | 95 | 1003.4 |
| 20260509120933 | 51 | 157 | 1.7 | 4.3 | 0.00 | 0.00 | 0.00 | 95 | 1003.5 |
| 20260509115933 | 50 | 194 | 1.7 | 7.8 | 0.00 | 0.00 | 0.00 | 95 | 1003.5 |
| 20260509114940 | 49 | 182 | 0.0 | 6.1 | 0.00 | 0.00 | 0.00 | 95 | 1003.4 |
| 20260509113934 | 49 | 165 | 0.0 | 6.1 | 0.00 | 0.00 | 0.00 | 95 | 1003.5 |
| 20260509112935 | 49 | 172 | 1.7 | 9.6 | 0.00 | 0.00 | 0.00 | 95 | 1003.6 |
| 20260509111934 | 48 | 186 | 0.0 | 4.3 | 0.00 | 0.00 | 0.00 | 95 | 1003.8 |
| 20260509110934 | 47 | 181 | 0.0 | 4.3 | 0.00 | 0.00 | 0.00 | 95 | 1003.8 |
| 20260509105934 | 46 | 185 | 0.0 | 1.7 | 0.00 | 0.00 | 0.00 | 95 | 1003.6 |
| 20260509104932 | 45 | 212 | 0.0 | 1.7 | 0.00 | 0.00 | 0.00 | 94 | 1003.8 |
| 20260509103931 | 44 | 212 | 0.0 | 0.0 | 0.00 | 0.00 | 0.00 | 95 | 1003.8 |
| 20260509102934 | 44 | 212 | 0.0 | 1.7 | 0.00 | 0.00 | 0.00 | 95 | 1003.8 |
| 20260509101931 | 43 | 212 | 0.0 | 0.0 | 0.00 | 0.00 | 0.00 | 94 | 1003.9 |
| 20260509100935 | 43 | 212 | 0.0 | 0.0 | 0.00 | 0.00 | 0.00 | 93 | 1004.0 |
| 20260509095931 | 43 | 212 | 0.0 | 0.0 | 0.00 | 0.00 | 0.00 | 93 | 1004.0 |
| 20260509094925 | 44 | 212 | 0.0 | 0.0 | 0.00 | 0.00 | 0.00 | 93 | 1004.2 |
| 20260509093925 | 44 | 212 | 0.0 | 0.0 | 0.00 | 0.00 | 0.00 | 93 | 1004.2 |
| 20260509092928 | 44 | 212 | 0.0 | 0.0 | 0.00 | 0.00 | 0.00 | 93 | 1004.2 |
| 20260509091927 | 44 | 212 | 0.0 | 0.0 | 0.00 | 0.00 | 0.00 | 92 | 1004.2 |
| 20260509090927 | 43 | 213 | 0.0 | 0.0 | 0.00 | 0.00 | 0.00 | 92 | 1004.3 |
| 20260509085927 | 43 | 212 | 0.0 | 0.0 | 0.00 | 0.00 | 0.00 | 92 | 1004.3 |
| 20260509084930 | 42 | 212 | 0.0 | 0.0 | 0.00 | 0.00 | 0.00 | 92 | 1004.2 |
| 20260509083935 | 42 | 213 | 0.0 | 0.0 | 0.00 | 0.00 | 0.00 | 91 | 1004.3 |
| 20260509082928 | 42 | 212 | 0.0 | 0.0 | 0.00 | 0.00 | 0.00 | 91 | 1004.3 |
| 20260509081921 | 42 | 212 | 0.0 | 0.0 | 0.00 | 0.00 | 0.00 | 90 | 1004.4 |
| 20260509080926 | 42 | 212 | 0.0 | 0.0 | 0.00 | 0.00 | 0.00 | 90 | 1004.5 |
| 20260509075922 | 42 | 212 | 0.0 | 0.0 | 0.00 | 0.00 | 0.00 | 90 | 1004.6 |
| 20260509074921 | 42 | 212 | 0.0 | 0.0 | 0.00 | 0.00 | 0.00 | 89 | 1004.5 |
| 20260509073920 | 43 | 212 | 0.0 | 0.0 | 0.00 | 0.00 | 0.00 | 89 | 1004.6 |
| 20260509072919 | 43 | 212 | 0.0 | 0.0 | 0.00 | 0.00 | 0.00 | 89 | 1004.8 |
| 20260509071922 | 43 | 212 | 0.0 | 0.0 | 0.00 | 0.00 | 0.00 | 89 | 1004.7 |
| 20260509070922 | 43 | 212 | 0.0 | 0.0 | 0.00 | 0.00 | 0.00 | 88 | 1004.9 |
| 20260509065919 | 43 | 212 | 0.0 | 0.0 | 0.00 | 0.00 | 0.00 | 88 | 1004.9 |
| 20260509064919 | 43 | 212 | 0.0 | 0.0 | 0.00 | 0.00 | 0.00 | 87 | 1004.9 |
| 20260509063919 | 43 | 212 | 0.0 | 0.0 | 0.00 | 0.00 | 0.00 | 87 | 1005.1 |
| 20260509062921 | 43 | 212 | 0.0 | 0.0 | 0.00 | 0.00 | 0.00 | 86 | 1005.1 |
| 20260509061922 | 43 | 212 | 0.0 | 0.0 | 0.00 | 0.00 | 0.00 | 86 | 1005.2 |
| 20260509060917 | 43 | 212 | 0.0 | 0.0 | 0.00 | 0.00 | 0.00 | 86 | 1005.2 |
| 20260509055914 | 43 | 212 | 0.0 | 0.0 | 0.00 | 0.00 | 0.00 | 85 | 1005.5 |
| 20260509054914 | 43 | 212 | 0.0 | 0.0 | 0.00 | 0.00 | 0.00 | 86 | 1005.6 |
| 20260509053913 | 43 | 212 | 0.0 | 0.0 | 0.00 | 0.00 | 0.00 | 86 | 1005.7 |
| 20260509052915 | 43 | 212 | 0.0 | 0.0 | 0.00 | 0.00 | 0.00 | 86 | 1005.7 |
| 20260509051913 | 44 | 212 | 0.0 | 0.0 | 0.00 | 0.00 | 0.00 | 87 | 1005.8 |
| 20260509050915 | 44 | 212 | 0.0 | 0.0 | 0.00 | 0.00 | 0.00 | 87 | 1006.0 |
| 20260509045917 | 44 | 212 | 0.0 | 0.0 | 0.00 | 0.00 | 0.00 | 87 | 1005.9 |
| 20260509044913 | 44 | 212 | 0.0 | 0.0 | 0.00 | 0.00 | 0.00 | 87 | 1006.1 |
| 20260509043912 | 44 | 212 | 0.0 | 0.0 | 0.00 | 0.00 | 0.00 | 86 | 1006.1 |
| 20260509042916 | 44 | 212 | 0.0 | 0.0 | 0.00 | 0.00 | 0.00 | 85 | 1006.2 |
| 20260509041911 | 45 | 212 | 0.0 | 0.0 | 0.00 | 0.00 | 0.00 | 84 | 1006.2 |
| 20260509040916 | 45 | 212 | 0.0 | 0.0 | 0.00 | 0.00 | 0.00 | 82 | 1006.3 |
| 20260509035910 | 45 | 212 | 0.0 | 0.0 | 0.00 | 0.00 | 0.00 | 81 | 1006.3 |
| 20260509034910 | 46 | 212 | 0.0 | 0.0 | 0.00 | 0.00 | 0.00 | 79 | 1006.3 |
| 20260509033910 | 46 | 212 | 0.0 | 0.0 | 0.00 | 0.00 | 0.00 | 77 | 1006.2 |
| 20260509032908 | 46 | 212 | 0.0 | 0.0 | 0.00 | 0.00 | 0.00 | 75 | 1006.2 |
| 20260509031909 | 47 | 212 | 0.0 | 0.0 | 0.00 | 0.00 | 0.00 | 72 | 1006.3 |
| 20260509030907 | 48 | 212 | 0.0 | 0.0 | 0.00 | 0.00 | 0.00 | 68 | 1006.5 |
| 20260509025907 | 48 | 212 | 0.0 | 0.0 | 0.00 | 0.00 | 0.00 | 66 | 1006.5 |
| 20260509024907 | 49 | 172 | 0.0 | 0.0 | 0.00 | 0.00 | 0.00 | 63 | 1006.6 |
| 20260509023906 | 49 | 172 | 0.0 | 0.0 | 0.00 | 0.00 | 0.00 | 61 | 1006.6 |
| 20260509022909 | 50 | 172 | 0.0 | 0.0 | 0.00 | 0.00 | 0.00 | 59 | 1006.6 |
| 20260509021911 | 50 | 172 | 0.0 | 0.0 | 0.00 | 0.00 | 0.00 | 56 | 1006.6 |
| 20260509020903 | 51 | 172 | 0.0 | 0.0 | 0.00 | 0.00 | 0.00 | 55 | 1006.7 |
| 20260509015903 | 52 | 172 | 0.0 | 0.0 | 0.00 | 0.00 | 0.00 | 54 | 1006.6 |
| 20260509014902 | 53 | 172 | 0.0 | 0.0 | 0.00 | 0.00 | 0.00 | 51 | 1006.4 |
| 20260509013902 | 54 | 172 | 0.0 | 1.7 | 0.00 | 0.00 | 0.00 | 49 | 1006.3 |
| 20260509012901 | 54 | 172 | 0.0 | 0.0 | 0.00 | 0.00 | 0.00 | 49 | 1006.2 |
| 20260509011859 | 55 | 172 | 0.0 | 0.0 | 0.00 | 0.00 | 0.00 | 49 | 1006.1 |
| 20260509010857 | 55 | 172 | 0.0 | 0.0 | 0.00 | 0.00 | 0.00 | 48 | 1005.9 |
| 20260509005859 | 56 | 172 | 0.0 | 0.0 | 0.00 | 0.00 | 0.00 | 46 | 1005.9 |
| 20260509004900 | 57 | 172 | 0.0 | 0.0 | 0.00 | 0.00 | 0.00 | 44 | 1005.8 |
| 20260509003900 | 58 | 172 | 0.0 | 0.0 | 0.00 | 0.00 | 0.00 | 41 | 1005.8 |
| 20260509002900 | 59 | 172 | 0.0 | 0.0 | 0.00 | 0.00 | 0.00 | 41 | 1005.7 |
| 20260509001859 | 60 | 172 | 0.0 | 1.7 | 0.00 | 0.00 | 0.00 | 38 | 1005.7 |
| 20260509000900 | 61 | 172 | 0.0 | 3.5 | 0.00 | 0.00 | 0.00 | 36 | 1005.7 |
| 20260508235859 | 61 | 183 | 0.0 | 3.5 | 0.00 | 0.00 | 0.00 | 36 | 1005.7 |
| 20260508234858 | 61 | 175 | 0.0 | 3.5 | 0.00 | 0.00 | 0.00 | 36 | 1005.7 |
| 20260508233901 | 61 | 199 | 0.0 | 1.7 | 0.00 | 0.00 | 0.00 | 36 | 1005.7 |
| 20260508232858 | 61 | 199 | 0.0 | 3.5 | 0.00 | 0.00 | 0.00 | 36 | 1005.7 |
| 20260508231902 | 61 | 169 | 0.0 | 6.1 | 0.00 | 0.00 | 0.00 | 36 | 1005.7 |
| 20260508230859 | 62 | 158 | 0.0 | 6.1 | 0.00 | 0.00 | 0.00 | 36 | 1005.7 |
| 20260508225900 | 63 | 342 | 1.7 | 4.3 | 0.00 | 0.00 | 0.00 | 34 | 1005.7 |
| 20260508224858 | 62 | 148 | 1.7 | 12.2 | 0.00 | 0.00 | 0.00 | 36 | 1005.8 |
| 20260508223909 | 62 | 175 | 0.0 | 1.7 | 0.00 | 0.00 | 0.00 | 37 | 1005.9 |
| 20260508222905 | 62 | 289 | 0.0 | 1.7 | 0.00 | 0.00 | 0.00 | 35 | 1006.0 |
| 20260508221855 | 62 | 257 | 1.7 | 7.8 | 0.00 | 0.00 | 0.00 | 35 | 1006.0 |
| 20260508220853 | 63 | 269 | 1.7 | 6.1 | 0.00 | 0.00 | 0.00 | 34 | 1006.0 |
| 20260508215855 | 63 | 155 | 1.7 | 9.6 | 0.00 | 0.00 | 0.00 | 33 | 1006.0 |
| 20260508214852 | 64 | 160 | 1.7 | 7.8 | 0.00 | 0.00 | 0.00 | 34 | 1006.1 |
| 20260508213853 | 63 | 179 | 3.5 | 7.8 | 0.00 | 0.00 | 0.00 | 32 | 1006.1 |
| 20260508212852 | 63 | 269 | 1.7 | 7.8 | 0.00 | 0.00 | 0.00 | 32 | 1006.2 |
| 20260508211852 | 63 | 285 | 3.5 | 6.1 | 0.00 | 0.00 | 0.00 | 32 | 1006.3 |
| 20260508210853 | 63 | 199 | 1.7 | 6.1 | 0.00 | 0.00 | 0.00 | 34 | 1006.3 |
| 20260508205847 | 63 | 293 | 1.7 | 6.1 | 0.00 | 0.00 | 0.00 | 32 | 1006.3 |
| 20260508204848 | 63 | 209 | 3.5 | 9.6 | 0.00 | 0.00 | 0.00 | 32 | 1006.5 |
| 20260508203848 | 63 | 275 | 4.3 | 15.6 | 0.00 | 0.00 | 0.00 | 34 | 1006.7 |
| 20260508202846 | 62 | 124 | 1.7 | 9.6 | 0.00 | 0.00 | 0.00 | 35 | 1006.8 |
| 20260508201847 | 62 | 292 | 1.7 | 7.8 | 0.00 | 0.00 | 0.00 | 34 | 1006.9 |
| 20260508200846 | 62 | 309 | 1.7 | 9.6 | 0.00 | 0.00 | 0.00 | 34 | 1007.2 |
| 20260508195847 | 62 | 180 | 1.7 | 6.1 | 0.00 | 0.00 | 0.00 | 35 | 1007.3 |
| 20260508194846 | 60 | 153 | 1.7 | 6.1 | 0.00 | 0.00 | 0.00 | 36 | 1007.5 |
| 20260508193847 | 61 | 335 | 3.5 | 9.6 | 0.00 | 0.00 | 0.00 | 34 | 1007.6 |
| 20260508192845 | 61 | 242 | 3.5 | 15.6 | 0.00 | 0.00 | 0.00 | 32 | 1007.7 |
| 20260508191846 | 60 | 245 | 1.7 | 7.8 | 0.00 | 0.00 | 0.00 | 33 | 1007.8 |
| 20260508190845 | 60 | 219 | 1.7 | 12.2 | 0.00 | 0.00 | 0.00 | 34 | 1007.8 |
| 20260508185846 | 60 | 283 | 1.7 | 7.8 | 0.00 | 0.00 | 0.00 | 33 | 1008.0 |
| 20260508184846 | 61 | 17 | 3.5 | 7.8 | 0.00 | 0.00 | 0.00 | 32 | 1008.2 |
| 20260508183849 | 60 | 168 | 4.3 | 10.4 | 0.00 | 0.00 | 0.00 | 31 | 1008.4 |
| 20260508182848 | 59 | 223 | 1.7 | 7.8 | 0.00 | 0.00 | 0.00 | 32 | 1008.3 |
| 20260508181850 | 59 | 147 | 1.7 | 6.1 | 0.00 | 0.00 | 0.00 | 35 | 1008.4 |
| 20260508180848 | 60 | 332 | 3.5 | 9.6 | 0.00 | 0.00 | 0.00 | 34 | 1008.6 |
| 20260508175841 | 60 | 229 | 1.7 | 6.1 | 0.00 | 0.00 | 0.00 | 33 | 1008.8 |
| 20260508174842 | 59 | 157 | 3.5 | 7.8 | 0.00 | 0.00 | 0.00 | 34 | 1009.0 |
| 20260508173840 | 59 | 192 | 3.5 | 6.1 | 0.00 | 0.00 | 0.00 | 35 | 1009.2 |
| 20260508172841 | 59 | 248 | 3.5 | 9.6 | 0.00 | 0.00 | 0.00 | 33 | 1009.2 |
| 20260508171842 | 59 | 185 | 1.7 | 6.1 | 0.00 | 0.00 | 0.00 | 35 | 1009.5 |
| 20260508170843 | 58 | 148 | 3.5 | 9.6 | 0.00 | 0.00 | 0.00 | 35 | 1009.5 |
| 20260508165845 | 58 | 155 | 3.5 | 9.6 | 0.00 | 0.00 | 0.00 | 36 | 1009.7 |
| 20260508164836 | 57 | 283 | 3.5 | 10.4 | 0.00 | 0.00 | 0.00 | 34 | 1009.8 |
| 20260508163839 | 57 | 238 | 3.5 | 6.1 | 0.00 | 0.00 | 0.00 | 37 | 1009.9 |
| 20260508162838 | 57 | 350 | 1.7 | 7.8 | 0.00 | 0.00 | 0.00 | 34 | 1010.1 |
| 20260508161835 | 56 | 317 | 1.7 | 4.3 | 0.00 | 0.00 | 0.00 | 35 | 1010.1 |
| 20260508160838 | 56 | 283 | 3.5 | 9.6 | 0.00 | 0.00 | 0.00 | 35 | 1010.2 |
| 20260508155837 | 56 | 169 | 1.7 | 9.6 | 0.00 | 0.00 | 0.00 | 35 | 1010.3 |
| 20260508154835 | 55 | 154 | 1.7 | 13.9 | 0.00 | 0.00 | 0.00 | 36 | 1010.3 |
| 20260508153836 | 55 | 264 | 1.7 | 9.6 | 0.00 | 0.00 | 0.00 | 39 | 1010.3 |
| 20260508152842 | 54 | 156 | 1.7 | 6.1 | 0.00 | 0.00 | 0.00 | 39 | 1010.3 |